www.pogodaiklimat.ru

Погода и климат >> Архив погоды >> Россия >> Краснодарский край >> Туапсе


АРХИВ ПОГОДЫ в Туапсе

Время (UTC), дата Ветер
(напр.,м/с)
 
Видим.   Явления Облачность Т
(С)
Тd
(С)
f
(%)
Тe
(С)
Тes
(С)
Комфортность P
(гПа)
Po
(гПа)
Тmin
(С)
Tmax
(С)
R
(мм)
R24
(мм)
S
(см)
15 12.09 С 1 20 км ясно +30.3 +10.7 30 +30 +31 жарко 1011.7 1004.7 +32.9
18 12.09 СВ 3 10 км ясно +23.2 +12.1 50 +26 +26 жарко 1011.6 1004.5
21 12.09 СВ 2 10 км ясно +21.5 +12.6 57 +24 +24 комфорт 1011.8 1004.6
00 13.09 СВ 2 10 км ясно +21.4 +10.9 51 +23 +23 комфорт 1011.0 1003.9
03 13.09 СВ 2 20 км ясно +20.0 +11.1 57 +22 +22 комфорт 1012.1 1004.9 +19.0
06 13.09 СВ 1 20 км ясно +27.3 +14.0 44 +29 +35 жарко 1012.6 1005.6
09 13.09 ЮВ 2 20 км ясно +31.5 +15.4 38 +34 +46 душно 1012.7 1005.8
12 13.09 ЮЗ 3 20 км ясно +30.6 +18.5 48 +35 +42 очень
душно
1012.9 1005.9
15 13.09 ЮВ 1 20 км ясно +26.1 +19.8 68 +32 +32 очень
душно
1012.8 1005.8 +31.9
18 13.09 СЗ 2 10 км ясно +24.1 +16.7 63 +28 +28 душно 1013.8 1006.8
21 13.09 СВ 1 10 км 6/6 1000 м
[Sc]
+22.2 +18.1 78 +27 +27 душно 1014.5 1007.4
00 14.09 В 1 10 км 6/6 1000 м
[Sc]
+23.1 +18.7 76 +29 +29 очень
душно
1015.2 1008.1
03 14.09 СВ 2 н/о н/о +22.8 +18.9 79 +29 +29 очень
душно
1016.2 1009.1 +22.0
06 14.09 ЮВ 2 20 км 8/6 1000 м
[Cu Sc Ci fib]
+25.5 +18.5 65 +30 +32 душно 1017.5 1010.4 +21.7
09 14.09 Ю 2 20 км 3/3 1000 м
[Cu med, cong]
+27.7 +19.1 59 +33 +41 очень
душно
1017.8 1010.8
12 14.09 ЮЗ 2 20 км 1/1 1000 м
[Cu med, cong]
+29.5 +19.5 55 +35 +42 очень
душно
1016.5 1009.5
15 14.09 З 1 20 км ясно +25.9 +19.6 68 +31 +32 очень
душно
1015.0 1007.9 +30.3
18 14.09 СВ 1 10 км ясно +26.2 +19.8 68 +28 +28 жарко 1014.0 1006.9
21 14.09 ЮВ 2 10 км ясно +23.5 +19.2 77 +28 +28 душно 1013.7 1006.6
00 15.09 штиль 0 10 км ясно +22.0 +17.0 73 +26 +26 душно 1013.4 1006.2
03 15.09 С 1 20 км ясно +21.1 +12.5 58 +23 +23 комфорт 1013.2 1006.0 +20.0
06 15.09 СВ 1 20 км ясно +26.0 +13.6 46 +28 +34 жарко 1012.6 1005.6
09 15.09 З 1 20 км ясно +31.8 +17.4 42 +36 +49 очень
душно
1011.9 1005.0
12 15.09 ЮЗ 2 20 км ясно +35.1 +15.1 30 +37 +44 очень
душно
1011.0 1004.2
15 15.09 С 2 20 км ясно +27.4 +17.0 53 +31 +31 душно 1010.7 1003.7 +35.3
18 15.09 С 2 10 км ясно +27.1 +13.3 43 +29 +29 жарко 1011.5 1004.5
21 15.09 С 4 10 км ясно +26.6 +10.0 35 +27 +27 жарко 1012.5 1005.5
00 16.09 С 2 10 км ясно +24.8 +9.1 37 +25 +25 комфорт 1014.5 1007.4
03 16.09 С 2 20 км ясно +22.7 +10.5 46 +25 +25 комфорт 1015.9 1008.7 +21.0
06 16.09 В 1 20 км ясно +27.0 +11.4 38 +28 +34 жарко 1017.0 1010.0
09 16.09 ЮЗ 2 20 км ясно +29.5 +18.0 50 +34 +46 очень
душно
1016.8 1009.8
12 16.09 ЮЗ 2 20 км ясно +30.4 +19.4 52 +36 +43 очень
душно
1015.6 1008.6
15 16.09 З 1 20 км ясно +27.3 +18.2 58 +32 +32 очень
душно
1014.3 1007.3 +31.0
18 16.09 ЮВ 2 10 км ясно +24.7 +18.9 70 +30 +30 очень
душно
1014.7 1007.6
21 16.09 В 1 10 км ясно +23.8 +20.2 80 +29 +29 душно 1015.5 1008.4
00 17.09 СВ 1 10 км ясно +23.4 +19.5 79 +30 +30 очень
душно
1015.8 1008.7
03 17.09 СВ 2 20 км ясно +21.6 +18.2 81 +26 +26 душно 1015.7 1008.5 +21.4
06 17.09 В 2 20 км ясно +26.2 +15.3 51 +29 +34 жарко 1015.7 1008.7 +20.8
09 17.09 ЮЗ 2 20 км ясно +30.4 +18.9 50 +36 +47 очень
душно
1015.1 1008.2
12 17.09 ЮЗ 2 20 км ясно +30.4 +19.7 53 +37 +44 очень
душно
1014.1 1007.2
15 17.09 СЗ 1 20 км ясно +27.0 +19.9 65 +33 +33 очень
душно
1012.8 1005.8 +31.2
18 17.09 В 1 10 км ясно +23.2 +18.9 77 +29 +29 душно 1012.5 1005.4
21 17.09 СВ 1 10 км 3/3 1000 м
[Sc]
+22.9 +19.6 82 +29 +29 очень
душно
1012.8 1005.7
00 18.09 штиль 0 10 км 8/8 1000 м
[Sc]
+23.3 +20.5 84 +31 +31 очень
душно
1012.7 1005.6
03 18.09 С 1 20 км 10/8 1000 м
[Cu Sc Ci]
+22.2 +19.8 86 +28 +28 душно 1012.6 1005.5 +22.2
06 18.09 ЮВ 1 20 км 3/3 1000 м
[Sc]
+26.7 +19.5 65 +32 +36 очень
душно
1013.0 1006.0 +22.0
09 18.09 ЮЗ 2 20 км ясно +31.0 +18.7 48 +36 +47 очень
душно
1012.7 1005.8
12 18.09 ЮЗ 2 20 км ясно +31.2 +15.5 39 +34 +41 душно 1011.9 1004.9
15 18.09 З 1 20 км ясно +27.3 +18.4 58 +32 +32 очень
душно
1011.6 1004.7 +31.4
18 18.09 СВ 1 10 км ясно +23.8 +17.2 67 +28 +28 душно 1012.3 1005.2
21 18.09 СВ 2 10 км ясно +22.1 +17.2 74 +27 +27 душно 1012.5 1005.4
00 19.09 С 1 10 км 3/1 1000 м
[Sc Ci sp]
+21.5 +18.6 84 +26 +26 душно 1013.1 1006.0
03 19.09 СВ 2 20 км ясно +20.7 +17.5 82 +25 +25 комфорт 1013.3 1006.1 +20.3
06 19.09 В 1 20 км ясно +26.2 +16.9 57 +30 +35 душно 1013.5 1006.5 +20.2
09 19.09 ЮЗ 2 20 км ясно +30.7 +15.3 39 +33 +44 душно 1013.0 1006.0
12 19.09 ЮЗ 2 20 км ясно +31.3 +16.3 41 +34 +41 душно 1012.3 1005.3

 

Местоположение метеостанции Туапсе (Краснодарский край, Россия): широта 44.10 долгота 39.07 высота над уровнем моря 62 м.

В архиве по умолчанию представлена погода в Туапсе за последнюю неделю. Архивные данные за месяц целиком и за предыдущие месяцы, начиная с января 2011 года, Вы можете получить, выбрав интересующий диапазон дат из раскрывающегося списка и нажав кнопку "Ввод!".

Внимание! Время в таблицах - всемирное. Для получения местного времени необходимо прибавить поправку, которая в Туапсе равна 3 ч.

Смотрите также архив погоды в соседних городах и на ближайших метеорологических станциях:

Погода в Горном (Краснодарский край, Россия) (26 км)
Погода в Джубге (Краснодарский край, Россия) (38 км)
Погода в Горячем Ключе (Краснодарский край, Россия) (59 км)
Погода в Сочи (Краснодарский край, Россия) (81 км)
Погода в Гузерипле (Адыгея, Россия) (85 км)
Погода в Шунтуке (Адыгея, Россия) (93 км)
Погода в Геленджике (Краснодарский край, Россия) (95 км)
Погода в Кепше (Краснодарский край, Россия) (95 км)
Погода в Белореченске (Краснодарский край, Россия) (98 км)
Погода в Майкопе (Адыгея, Россия) (99 км)

Пояснения к столбцам:

Ветер - указаны скорость ветра в м/с - средняя за 10 мин, порывы в срок и между сроками (в фигурных скобках) и направление, откуда дует ветер: С - северный, СВ - северо-восточный, В - восточный, ЮВ - юго-восточный, Ю - южный, ЮЗ - юго-западный, З - западный, СЗ - северо-западный.
Видимость - горизонтальная дальность видимости в метрах или километрах. При видимости от 1 до 10 км при отсутствии осадков обычно наблюдается дымка, при ухудшении видимости до 1 км и менее - туман. В сухую погоду видимость может ухудшаться дымом, пылью или мглою.
Явления - указаны атмосферные явления, наблюдавшиеся в срок или в последний час перед сроком; фигурными скобками обозначены явления, наблюдавшиеся между сроками (за 1-3 часа до срока); квадратными скобками обозначены град или гололедные отложения с указанием их диаметра в мм.
Облачность - указаны через наклонную черту общая и нижняя облачность в баллах и высота нижней границы облаков в метрах; квадратными скобками обозначены формы облаков: Ci - перистые, Cs - перисто-слоистые, Cc - перисто-кучевые, Ac - высококучевые, As - высокослоистые, Sc - слоисто-кучевые, Ns - слоисто-дождевые, Cu - кучевые, Cb - кучево-дождевые. Подробнее классификацию облаков см. в Атласе облаков (PDF).
T - Температура воздуха - температура, измеренная на высоте 2 м над землей.
Td - Температура точки росы - температура, при понижении до которой содержащийся в воздухе водяной пар достигнет насыщения.
f - Относительная влажность воздуха - влажноcть воздуха, измеренная на высоте 2 м над землей.
Te - Эффективная температура - температура, которую ощущает одетый по сезону человек в тени. Характеристика душности погоды. При расчете учитывается влияние влажности воздуха и скорости ветра на теплоощущения человека.
Tes - Эффективная температура на солнце - температура, которую ощущает человек, с поправкой на солнечный нагрев. Характеристика знойности погоды. Зависит от высоты солнца над горизонтом, облачности и скорости ветра. Ночью, в пасмурную погоду, а также при ветре 12 м/с и более поправка равна нулю.
P - Атмосферное давление - приведенное к уровню моря атмосферное давление.
Po - Атмосферное давление - измеренное на уровне метеостанции атмосферное давление.
Tmin - Минимальная температура - минимум температуры воздуха на высоте 2 м над землей.
Tmax - Максимальная температура - максимум температуры воздуха на высоте 2 м над землей.
R - Количество осадков - Количество выпавших осадков за период времени, мм. При наведении курсора мыши на число - период времени, за который выпало указанное количество осадков.
R24 - Количество осадков - Количество выпавших осадков за 24 часа, мм.
S - Снежный покров - Высота снежного покрова, см. При наведении курсора мыши на число - состояние снежного покрова и степень покрытия местности в баллах.